Location: Hall+in+Tirol
(47.2830°N, 11.5170°E)
Time: 08:45:39
(UTC+02:00)

Amateur Radio Satellites - All Passes

Search period start: 28 July 2016 08:15
Search period end: 29 July 2016 08:15
Location: Hall+in+Tirol, 47.2830°N, 11.5170°E

Satellite Date Start Highest point End Downlink Frequencies (MHz)
Time Altitude Azimuth
BRITE-PL 28 Jul 08:23:03 08:27:06 28° 294° (WNW) 08:31:23 437.365/2234.400
Cubesat XI-IV 28 Jul 08:28:56 08:34:04 48° 292° (WNW) 08:39:09 437.490
Cosmos 2491 28 Jul 08:31:59 08:40:28 50° 72° (ENE) 08:48:55 435.465 / 435.565
STRAND 1 28 Jul 08:35:35 08:40:00 28° 266° (W) 08:44:26 437.568
HO-68 28 Jul 08:39:00 08:45:35 37° 96° (E) 08:52:05 435.675
AAUSAT CUBESAT 2 28 Jul 08:39:02 08:40:13 11° 87° (E) 08:41:23 437.432
CUBEBUG 2 28 Jul 08:42:15 08:44:33 13° 87° (E) 08:46:49 437.445
CANX-2 28 Jul 08:43:37 08:47:30 34° 96° (E) 08:51:21 2200.000
RS-15 28 Jul 08:45:37 08:57:14 73° 313° (NW) 09:09:31 29.354- 29.394
LilacSat-2 28 Jul 08:51:06 08:53:44 18° 296° (WNW) 08:56:20 437.200
CUTE-I 28 Jul 08:52:41 08:57:21 31° 297° (WNW) 09:01:59 437.470
CUTE 1.7 + AOD 2 28 Jul 08:56:48 09:00:50 41° 98° (E) 09:04:48 437.475
UNISAT 6 28 Jul 09:08:36 09:11:07 15° 58° (ENE) 09:13:38 437.425
DOVE 4 28 Jul 09:09:46 09:14:34 42° 291° (WNW) 09:19:30 437.250
NOAA 15 28 Jul 09:11:00 09:14:32 19° 303° (WNW) 09:18:05 137.62
CINEMA 3 28 Jul 09:15:19 09:20:23 82° 103° (ESE) 09:25:24 145.822/145.860
PRISM 28 Jul 09:21:14 09:25:12 50° 260° (W) 09:29:11 437.425
GOMX 1 28 Jul 09:21:46 09:25:15 19° 298° (WNW) 09:28:52 467.674
Cosmos 2504 28 Jul 09:25:47 09:29:26 13° 70° (ENE) 09:33:03 435.465 / 435.565
SEEDS 28 Jul 09:34:23 09:38:34 76° 101° (E) 09:42:43 437.485
NOAA 18 28 Jul 09:36:29 09:40:02 18° 305° (NW) 09:43:35 137.9125
COMPASS 1 28 Jul 09:44:36 09:48:45 69° 102° (ESE) 09:52:51 437.405
SO-50 28 Jul 09:44:56 09:49:40 49° 314° (NW) 09:54:22 436.795
ANTELSAT 28 Jul 09:45:11 09:49:12 29° 65° (ENE) 09:53:15 437.575/2403.000
FUNcube-1 28 Jul 09:50:49 09:54:37 26° 93° (E) 09:58:18 145.935
ZACube-1 28 Jul 09:52:09 09:56:05 28° 94° (E) 09:59:54 437.345
UWE-3 28 Jul 09:53:13 09:57:39 43° 98° (E) 10:01:58 435.000/436.395/437.385
M-CUBED/EXP-1 PRIME 28 Jul 10:02:46 10:03:05 10° 91° (E) 10:03:23 437.505
YUBILEINY 28 Jul 10:03:33 10:12:10 63° 92° (E) 10:20:50 435.215
AAUSAT CUBESAT 2 28 Jul 10:12:06 10:16:14 75° 286° (WNW) 10:20:19 437.432
CUBEBUG 2 28 Jul 10:17:01 10:21:46 78° 287° (WNW) 10:26:23 437.445
CANX-2 28 Jul 10:19:45 10:23:13 25° 294° (WNW) 10:26:40 2200.000
TIGRISAT 28 Jul 10:25:52 10:30:28 65° 73° (ENE) 10:35:09 435.000
AUBIESAT-1 28 Jul 10:26:03 10:28:41 15° 94° (E) 10:31:18 437.475
HO-68 28 Jul 10:26:35 10:33:30 52° 296° (WNW) 10:40:24 435.675
DELFI C3 28 Jul 10:27:50 10:31:16 28° 96° (E) 10:34:41 145.870
Cosmos 2491 28 Jul 10:29:10 10:37:10 42° 274° (W) 10:45:12 435.465 / 435.565
QB50P1 28 Jul 10:30:56 10:33:19 15° 60° (ENE) 10:35:43 145.935-145.965
Oscar 11 28 Jul 10:31:46 10:36:06 72° 102° (ESE) 10:40:23 145.826/435.025
CUTE 1.7 + AOD 2 28 Jul 10:33:13 10:36:26 21° 296° (WNW) 10:39:37 437.475
POPSAT HIP 1 28 Jul 10:37:06 10:39:48 17° 61° (ENE) 10:42:32 437.405
UNISAT 6 28 Jul 10:42:29 10:47:09 84° 257° (WSW) 10:51:54 437.425
JAS-2 28 Jul 10:51:06 10:53:22 13° 54° (NE) 10:55:33 435.910
CINEMA 3 28 Jul 10:53:48 10:56:52 16° 301° (WNW) 10:59:56 145.822/145.860
QB50P2 28 Jul 10:57:12 11:00:47 27° 66° (ENE) 11:04:24 145.880/145.840
HUMSAT D 28 Jul 10:58:59 11:02:45 31° 96° (E) 11:06:26 437.325/437.525
POLYITAN 1 28 Jul 10:59:48 11:03:24 27° 66° (ENE) 11:07:04 437.675
RS-15 28 Jul 11:01:24 11:12:13 37° 344° (NNW) 11:23:27 29.354- 29.394
SEEDS 28 Jul 11:11:47 11:13:42 13° 301° (WNW) 11:15:37 437.485
Cosmos 2504 28 Jul 11:12:17 11:20:58 61° 91° (E) 11:29:32 435.465 / 435.565
ANTELSAT 28 Jul 11:21:29 11:25:46 37° 263° (W) 11:30:10 437.575/2403.000
COMPASS 1 28 Jul 11:21:40 11:23:47 14° 300° (WNW) 11:25:54 437.405
FUNcube-1 28 Jul 11:26:48 11:30:56 36° 292° (WNW) 11:34:58 145.935
ZACube-1 28 Jul 11:28:19 11:32:23 33° 293° (WNW) 11:36:22 437.345
SO-50 28 Jul 11:28:27 11:31:16 15° 336° (NNW) 11:34:04 436.795
UWE-3 28 Jul 11:30:09 11:33:51 24° 297° (WNW) 11:37:29 435.000/436.395/437.385
M-CUBED/EXP-1 PRIME 28 Jul 11:33:34 11:38:17 76° 109° (ESE) 11:43:00 437.505
NANOSAT C BR1 28 Jul 11:41:21 11:45:33 66° 74° (ENE) 11:49:48 145.865
DUCHIFAT 1 28 Jul 11:45:10 11:49:21 68° 74° (ENE) 11:53:37 145.980
ESTCUBE 1 28 Jul 11:50:41 11:54:07 21° 92° (E) 11:57:31 437.505/2401.250
CUBEBUG 2 28 Jul 11:55:50 11:57:33 12° 304° (NW) 11:59:17 437.445
BUGSAT 1 28 Jul 11:56:07 11:59:58 40° 69° (ENE) 12:03:53 437.445
Oscar 19 28 Jul 11:58:29 12:00:39 13° 54° (NE) 12:02:48 437.125/150
AUBIESAT-1 28 Jul 11:58:56 12:03:36 76° 291° (WNW) 12:08:13 437.475
YUBILEINY 28 Jul 12:01:42 12:09:32 35° 295° (WNW) 12:17:28 435.215
CUBEBUG 1 28 Jul 12:02:12 12:05:20 19° 92° (E) 12:08:26 437.445
DELFI C3 28 Jul 12:02:43 12:06:04 27° 293° (WNW) 12:09:23 145.870
VELOX 1 28 Jul 12:03:42 12:06:35 17° 91° (E) 12:09:28 145.980
QB50P1 28 Jul 12:04:21 12:08:35 69° 258° (WSW) 12:12:52 145.935-145.965
TIGRISAT 28 Jul 12:04:41 12:07:36 16° 271° (W) 12:10:32 435.000
Oscar 11 28 Jul 12:09:20 12:11:41 14° 300° (WNW) 12:14:02 145.826/435.025
POPSAT HIP 1 28 Jul 12:10:57 12:15:09 59° 259° (W) 12:19:24 437.405
HO-68 28 Jul 12:16:30 12:19:39 13° 317° (NW) 12:22:48 435.675
UNISAT 6 28 Jul 12:23:44 12:24:36 10° 275° (W) 12:25:30 437.425
JAS-2 28 Jul 12:31:47 12:37:41 72° 72° (ENE) 12:43:02 435.910
QB50P2 28 Jul 12:32:37 12:36:29 33° 263° (W) 12:40:24 145.880/145.840
HUMSAT D 28 Jul 12:34:43 12:38:17 27° 294° (WNW) 12:41:48 437.325/437.525
POLYITAN 1 28 Jul 12:35:16 12:39:07 33° 264° (W) 12:43:02 437.675
DX 1 28 Jul 12:44:09 12:48:01 30° 96° (E) 12:51:53 434.975-435.025
AISAT 28 Jul 12:47:38 12:51:57 47° 99° (E) 12:56:16 437.250
UKube-1 28 Jul 12:55:55 12:59:49 31° 97° (E) 13:03:40 .
Cosmos 2504 28 Jul 13:06:43 13:14:48 37° 293° (WNW) 13:22:48 435.465 / 435.565
50 SAT 28 Jul 13:08:31 13:12:09 84° 104° (ESE) 13:15:44 437.505
M-CUBED/EXP-1 PRIME 28 Jul 13:09:09 13:12:16 18° 306° (NW) 13:15:24 437.505
RS-15 28 Jul 13:17:47 13:28:56 38° 18° (NNE) 13:40:12 29.354- 29.394
NANOSAT C BR1 28 Jul 13:19:37 13:21:45 13° 271° (W) 13:23:53 145.865
AO-7 28 Jul 13:21:27 13:26:28 18° 40° (NE) 13:31:30 29.400- 29.500
DUCHIFAT 1 28 Jul 13:23:31 13:25:32 13° 271° (W) 13:27:33 145.980
Gurwin Techsat 1B 28 Jul 13:23:41 13:28:17 31° 64° (ENE) 13:32:56 435.225
ESTCUBE 1 28 Jul 13:26:52 13:31:09 45° 290° (WNW) 13:35:25 437.505/2401.250
SPROUT 28 Jul 13:27:02 13:31:19 57° 100° (E) 13:35:34 437.525
BUGSAT 1 28 Jul 13:32:26 13:35:31 20° 268° (W) 13:38:40 437.445
Oscar 19 28 Jul 13:34:00 13:39:06 74° 73° (ENE) 13:44:14 437.125/150
ITAMSAT 1 28 Jul 13:34:08 13:37:04 15° 55° (NE) 13:40:00 435.822/435.867
AUBIESAT-1 28 Jul 13:35:12 13:37:17 13° 309° (NW) 13:39:22 437.475
CUBEBUG 1 28 Jul 13:37:37 13:41:54 50° 289° (WNW) 13:46:09 437.445
VELOX 1 28 Jul 13:39:03 13:43:25 57° 288° (WNW) 13:47:47 145.980
AO-85 28 Jul 13:39:40 13:44:13 29° 115° (ESE) 13:48:38 145.980
CUSAT 1 28 Jul 13:59:00 14:00:22 12° 71° (ENE) 14:01:50 437.405
AIST 1 28 Jul 14:01:31 14:05:46 87° 98° (E) 14:10:04
Cosmos 2499 28 Jul 14:14:46 14:18:30 13° 71° (ENE) 14:22:11 435.465 / 435.565
GONETS M04 28 Jul 14:15:34 14:21:09 19° 75° (ENE) 14:26:45
TISAT 1 28 Jul 14:18:41 14:22:51 49° 99° (E) 14:26:59 437.305
JAS-2 28 Jul 14:19:24 14:23:16 18° 269° (W) 14:26:55 435.910
DX 1 28 Jul 14:20:20 14:24:11 31° 294° (WNW) 14:28:02 434.975-435.025
AISAT 28 Jul 14:24:45 14:28:09 22° 297° (WNW) 14:31:33 437.250
UKube-1 28 Jul 14:32:03 14:35:47 29° 294° (WNW) 14:39:32 .
SWISSCUBE 28 Jul 14:49:32 14:53:24 24° 93° (E) 14:57:14 437.505
SO-50 28 Jul 14:53:20 14:56:21 16° 26° (NNE) 14:59:17 436.795
Gurwin Techsat 1B 28 Jul 15:03:04 15:08:06 42° 262° (W) 15:13:11 435.225
SPROUT 28 Jul 15:03:59 15:06:51 18° 299° (WNW) 15:09:43 437.525
AO-7 28 Jul 15:09:27 15:17:35 59° 62° (ENE) 15:25:44 29.400- 29.500
BEESAT 28 Jul 15:10:28 15:14:49 34° 97° (E) 15:19:07 436.000
ITAMSAT 1 28 Jul 15:10:33 15:15:47 87° 76° (ENE) 15:21:04 435.822/435.867
Oscar 19 28 Jul 15:15:53 15:19:00 16° 271° (W) 15:22:07 437.125/150
AO-85 28 Jul 15:19:18 15:24:32 54° 313° (NW) 15:29:28 145.980
RS-15 28 Jul 15:31:29 15:43:53 74° 48° (NE) 15:56:12 29.354- 29.394
ITUPSAT 1 28 Jul 15:34:08 15:38:50 55° 101° (E) 15:43:30 437.325
CUSAT 1 28 Jul 15:39:42 15:42:22 31° 262° (W) 15:45:33 437.405
AIST 1 28 Jul 15:43:04 15:44:03 11° 298° (WNW) 15:45:03
MOZHAYETS 4 28 Jul 15:44:08 15:44:50 10° 86° (E) 15:45:32
TISAT 1 28 Jul 15:55:07 15:58:10 19° 298° (WNW) 16:01:13 437.305
Cosmos 2499 28 Jul 16:01:12 16:09:53 62° 92° (E) 16:18:19 435.465 / 435.565
GONETS M04 28 Jul 16:07:54 16:16:36 84° 97° (E) 16:25:22
DANDE 28 Jul 16:13:30 16:15:55 35° 263° (W) 16:18:32 436.750
SWISSCUBE 28 Jul 16:26:52 16:31:23 44° 292° (WNW) 16:35:53 437.505
SO-50 28 Jul 16:33:08 16:37:48 60° 48° (NE) 16:42:17 436.795
KKS-1 28 Jul 16:35:26 16:39:25 30° 96° (E) 16:43:22 437.445
Cubesat XI-IV 28 Jul 16:38:57 16:40:21 11° 51° (NE) 16:41:45 437.490
BEESAT 28 Jul 16:48:20 16:52:33 32° 295° (WNW) 16:56:44 436.000
ITAMSAT 1 28 Jul 16:53:20 16:55:58 14° 272° (W) 16:58:37 435.822/435.867
CUTE-I 28 Jul 17:00:03 17:03:17 16° 56° (NE) 17:06:31 437.470
HORYU 2 28 Jul 17:00:05 17:04:31 63° 72° (ENE) 17:08:59 437.375
AO-85 28 Jul 17:02:48 17:06:03 16° 333° (NNW) 17:09:10 145.980
AO-7 28 Jul 17:03:05 17:10:41 38° 263° (W) 17:18:21 29.400- 29.500
STARS 28 Jul 17:10:47 17:14:53 35° 97° (E) 17:18:57 437.465
ITUPSAT 1 28 Jul 17:12:45 17:16:18 21° 299° (WNW) 17:19:50 437.325
NOAA 15 28 Jul 17:14:57 17:19:13 26° 61° (ENE) 17:23:31 137.62
MOZHAYETS 4 28 Jul 17:18:06 17:22:44 87° 110° (ESE) 17:27:17
GOMX 1 28 Jul 17:19:20 17:21:10 13° 57° (ENE) 17:23:03 467.674
PHONESAT 2.4 28 Jul 17:23:47 17:25:11 12° 159° (SSE) 17:26:34 2401.200-2431.200
NOAA 18 28 Jul 17:44:12 17:49:14 37° 64° (ENE) 17:54:17 137.9125
RS-15 28 Jul 17:44:38 17:55:38 41° 253° (WSW) 18:06:32 29.354- 29.394
Cosmos 2499 28 Jul 17:55:31 18:03:29 36° 293° (WNW) 18:11:15 435.465 / 435.565
BRITE-PL 28 Jul 17:58:50 18:02:54 59° 73° (ENE) 18:07:04 437.365/2234.400
LilacSat-2 28 Jul 18:00:50 18:04:23 35° 70° (ENE) 18:07:57 437.200
GONETS M04 28 Jul 18:07:41 18:14:35 25° 300° (WNW) 18:21:33
KKS-1 28 Jul 18:11:58 18:15:58 32° 294° (WNW) 18:19:57 437.445
Cubesat XI-IV 28 Jul 18:14:04 18:19:21 59° 70° (ENE) 18:24:39 437.490
SO-50 28 Jul 18:14:27 18:17:50 20° 248° (WSW) 18:21:09 436.795
BEESAT 3 28 Jul 18:19:00 18:22:04 22° 115° (ESE) 18:25:09 437.485
BEESAT 2 28 Jul 18:28:28 18:30:50 15° 112° (ESE) 18:33:14 435.950
CUTE-I 28 Jul 18:37:13 18:42:36 90° 251° (WSW) 18:48:02 437.470
HORYU 2 28 Jul 18:38:49 18:41:30 16° 270° (W) 18:44:12 437.375
CUBESAT XI-V 28 Jul 18:40:45 18:45:23 80° 103° (ESE) 18:50:01 437.345
DOVE 4 28 Jul 18:41:08 18:45:07 36° 67° (ENE) 18:49:20 437.250
CINEMA 3 28 Jul 18:45:12 18:47:50 15° 58° (ENE) 18:50:31 145.822/145.860
STARS 28 Jul 18:47:22 18:51:08 28° 295° (WNW) 18:54:54 437.465
NOAA 15 28 Jul 18:53:38 18:58:44 51° 260° (W) 19:03:51 137.62
GOMX 1 28 Jul 18:54:22 18:58:34 82° 258° (WSW) 19:03:01 467.674
MOZHAYETS 4 28 Jul 18:57:03 18:59:13 13° 303° (WNW) 19:01:22
PHONESAT 2.4 28 Jul 18:58:34 19:01:04 22° 176° (S) 19:03:33 2401.200-2431.200
STRAND 1 28 Jul 19:05:51 19:06:55 11° 85° (E) 19:07:59 437.568
HO-68 28 Jul 19:10:56 19:17:27 39° 60° (ENE) 19:24:00 435.675
NOAA 18 28 Jul 19:24:45 19:29:51 38° 263° (W) 19:35:02 137.9125
AAUSAT CUBESAT 2 28 Jul 19:32:19 19:34:09 13° 60° (ENE) 19:36:00 437.432
LilacSat-2 28 Jul 19:35:48 19:38:47 21° 267° (W) 19:41:48 437.200
CANX-2 28 Jul 19:39:10 19:43:06 37° 69° (ENE) 19:47:03 2200.000
BRITE-PL 28 Jul 19:39:47 19:41:54 14° 271° (W) 19:44:01 437.365/2234.400
PCSat 28 Jul 19:41:02 19:46:17 54° 117° (ESE) 19:51:35 145.827
CUBEBUG 2 28 Jul 19:43:00 19:46:05 18° 60° (ENE) 19:49:12 437.445
CUTE 1.7 + AOD 2 28 Jul 19:52:11 19:56:14 44° 71° (ENE) 20:00:19 437.475
Cubesat XI-IV 28 Jul 19:55:43 19:59:49 22° 269° (W) 20:03:56 437.490
BEESAT 3 28 Jul 19:55:44 19:59:30 44° 313° (NW) 20:03:19 437.485
Oscar 11 28 Jul 19:57:04 19:58:05 11° 57° (ENE) 19:59:07 145.826/435.025
BEESAT 2 28 Jul 20:04:17 20:08:13 62° 310° (NW) 20:12:12 435.950
YUBILEINY 28 Jul 20:09:51 20:17:56 37° 67° (ENE) 20:25:54 435.215
DOVE 4 28 Jul 20:19:17 20:22:56 26° 267° (W) 20:26:47 437.250
CUBESAT XI-V 28 Jul 20:19:41 20:22:10 15° 301° (WNW) 20:24:39 437.345
CINEMA 3 28 Jul 20:19:42 20:24:16 81° 258° (WSW) 20:29:06 145.822/145.860
CUTE-I 28 Jul 20:20:46 20:23:24 14° 273° (W) 20:26:04 437.470
O/OREOS (USA 219) 28 Jul 20:26:24 20:30:09 27° 104° (ESE) 20:33:56 437.305
AO-85 28 Jul 20:28:33 20:31:09 15° 23° (NNE) 20:33:39 145.980
SEEDS 28 Jul 20:28:41 20:32:54 77° 75° (ENE) 20:37:08 437.485
PHONESAT 2.4 28 Jul 20:34:47 20:37:02 18° 192° (SSW) 20:39:16 2401.200-2431.200
COMPASS 1 28 Jul 20:37:57 20:42:07 69° 75° (ENE) 20:46:16 437.405
AIST 2 28 Jul 20:39:47 20:42:41 19° 113° (ESE) 20:45:35 435.215
STRAND 1 28 Jul 20:41:49 20:46:57 78° 104° (ESE) 20:52:03 437.568
FUNcube-1 28 Jul 20:48:56 20:52:55 31° 67° (ENE) 20:56:57 145.935
M-CUBED/EXP-1 PRIME 28 Jul 20:50:03 20:52:52 19° 55° (NE) 20:55:50 437.505
ZACube-1 28 Jul 20:50:31 20:54:37 34° 68° (ENE) 20:58:46 437.345
UWE-3 28 Jul 20:52:38 20:57:06 51° 71° (ENE) 21:01:39 435.000/436.395/437.385
HO-68 28 Jul 20:58:05 21:05:01 50° 260° (W) 21:12:01 435.675
PRISM 28 Jul 21:00:21 21:03:03 17° 92° (E) 21:05:44 437.425
Cosmos 2504 28 Jul 21:02:13 21:08:57 27° 61° (ENE) 21:15:16 435.465 / 435.565
AAUSAT CUBESAT 2 28 Jul 21:04:55 21:09:04 77° 256° (WSW) 21:13:14 437.432
ISS 28 Jul 21:11:09 21:13:38 20° 138° (SE) 21:16:05 145.825
AUBIESAT-1 28 Jul 21:14:17 21:17:37 26° 58° (ENE) 21:21:10 437.475
CANX-2 28 Jul 21:15:38 21:19:04 23° 267° (W) 21:22:32 2200.000
DELFI C3 28 Jul 21:16:45 21:20:05 26° 67° (ENE) 21:23:25 145.870
CUBEBUG 2 28 Jul 21:17:34 21:22:10 67° 259° (WSW) 21:26:55 437.445
PCSat 28 Jul 21:25:07 21:29:57 32° 317° (NW) 21:34:49 145.827
Oscar 11 28 Jul 21:29:07 21:33:29 80° 75° (ENE) 21:37:51 145.826/435.025
CUTE 1.7 + AOD 2 28 Jul 21:29:10 21:32:18 20° 268° (W) 21:35:27 437.475
BEESAT 3 28 Jul 21:37:01 21:38:11 11° 335° (NNW) 21:39:21 437.485
Cosmos 2491 28 Jul 21:37:06 21:45:21 51° 89° (E) 21:53:39 435.465 / 435.565
BEESAT 2 28 Jul 21:44:47 21:46:51 14° 331° (NNW) 21:48:55 435.950
HUMSAT D 28 Jul 21:52:55 21:56:47 33° 68° (ENE) 22:00:41 437.325/437.525
O/OREOS (USA 219) 28 Jul 22:05:16 22:09:26 37° 304° (WNW) 22:13:37 437.305
YUBILEINY 28 Jul 22:06:34 22:15:10 59° 269° (W) 22:23:42 435.215
SEEDS 28 Jul 22:07:47 22:09:09 11° 273° (W) 22:10:30 437.485
AO-85 28 Jul 22:08:17 22:12:45 52° 47° (NE) 22:16:49 145.980
COMPASS 1 28 Jul 22:16:20 22:18:09 12° 272° (W) 22:19:58 437.405
AIST 2 28 Jul 22:16:45 22:20:47 55° 311° (NW) 22:24:53 435.215
TIGRISAT 28 Jul 22:16:48 22:18:10 11° 86° (E) 22:19:31 435.000
STRAND 1 28 Jul 22:22:14 22:25:32 17° 303° (WNW) 22:28:48 437.568
M-CUBED/EXP-1 PRIME 28 Jul 22:23:13 22:26:59 52° 255° (WSW) 22:31:06 437.505
FUNcube-1 28 Jul 22:25:00 22:29:06 33° 265° (W) 22:33:16 145.935
ZACube-1 28 Jul 22:26:54 22:30:54 30° 265° (W) 22:34:58 437.345
UWE-3 28 Jul 22:30:27 22:33:51 20° 269° (W) 22:37:19 435.000/436.395/437.385
UNISAT 6 28 Jul 22:32:15 22:35:20 17° 90° (E) 22:38:21 437.425
PRISM 28 Jul 22:34:41 22:38:38 48° 289° (WNW) 22:42:35 437.425
ISS 28 Jul 22:46:29 22:49:45 79° 339° (NNW) 22:53:01 145.825
AUBIESAT-1 28 Jul 22:48:22 22:51:57 34° 259° (WSW) 22:55:48 437.475
DELFI C3 28 Jul 22:51:22 22:54:51 29° 264° (W) 22:58:22 145.870
ESTCUBE 1 28 Jul 22:53:04 22:56:55 29° 66° (ENE) 23:00:46 437.505/2401.250
Cosmos 2504 28 Jul 22:55:05 23:03:19 75° 265° (W) 23:10:53 435.465 / 435.565
CUBEBUG 1 28 Jul 23:01:10 23:04:34 23° 64° (ENE) 23:08:01 437.445
VELOX 1 28 Jul 23:03:53 23:07:19 23° 63° (ENE) 23:10:45 145.980
Oscar 11 28 Jul 23:08:44 23:10:11 11° 273° (W) 23:11:38 145.826/435.025
ANTELSAT 28 Jul 23:09:48 23:14:09 38° 97° (E) 23:18:24 437.575/2403.000
PCSat 28 Jul 23:13:20 23:15:10 12° 342° (NNW) 23:16:59 145.827
HUMSAT D 28 Jul 23:28:47 23:32:27 27° 266° (W) 23:36:07 437.325/437.525
Cosmos 2491 28 Jul 23:34:15 23:42:23 42° 291° (WNW) 23:50:34 435.465 / 435.565
DX 1 28 Jul 23:42:28 23:46:29 39° 68° (ENE) 23:50:32 434.975-435.025
QB50P1 28 Jul 23:47:03 23:49:42 16° 90° (E) 23:52:20 145.935-145.965
AISAT 28 Jul 23:47:48 23:52:06 61° 72° (ENE) 23:56:28 437.250
50 SAT 28 Jul 23:48:42 23:52:18 59° 74° (ENE) 23:55:55 437.505
AO-85 28 Jul 23:49:31 23:52:47 21° 248° (WSW) 23:55:51 145.980
TIGRISAT 28 Jul 23:50:52 23:55:33 89° 294° (WNW) 00:00:07 435.000
UKube-1 28 Jul 23:53:14 23:57:14 40° 69° (ENE) 00:01:17 .
POPSAT HIP 1 28 Jul 23:53:23 23:56:22 18° 91° (E) 23:59:20 437.405
AIST 2 28 Jul 23:58:07 00:00:10 13° 333° (NNW) 00:02:15 435.215
AIST 1 29 Jul 00:05:22 00:09:12 29° 72° (ENE) 00:13:02
YUBILEINY 29 Jul 00:07:04 00:09:54 12° 292° (WNW) 00:12:45 435.215
UNISAT 6 29 Jul 00:07:52 00:12:27 59° 288° (WNW) 00:16:55 437.425
QB50P2 29 Jul 00:14:07 00:17:57 31° 96° (E) 00:21:46 145.880/145.840
POLYITAN 1 29 Jul 00:16:44 00:20:36 31° 96° (E) 00:24:26 437.675
GONETS M04 29 Jul 00:19:56 00:23:16 12° 46° (NE) 00:26:36
SPROUT 29 Jul 00:23:17 00:27:31 64° 73° (ENE) 00:31:47 437.525
ISS 29 Jul 00:23:24 00:26:28 37° 356° (N) 00:29:32 145.825
ESTCUBE 1 29 Jul 00:29:33 00:33:38 34° 264° (W) 00:37:44 437.505/2401.250
CUBEBUG 1 29 Jul 00:36:36 00:40:39 40° 262° (W) 00:44:46 437.445
VELOX 1 29 Jul 00:39:21 00:43:32 43° 261° (W) 00:47:45 145.980
ANTELSAT 29 Jul 00:46:48 00:50:42 27° 296° (WNW) 00:54:31 437.575/2403.000
Cosmos 2504 29 Jul 00:50:46 00:55:04 16° 288° (WNW) 00:59:15 435.465 / 435.565
BEESAT 3 29 Jul 00:56:42 00:57:27 10° 24° (NNE) 00:58:13 437.485
NANOSAT C BR1 29 Jul 00:58:08 01:02:28 80° 104° (ESE) 01:06:43 145.865
DUCHIFAT 1 29 Jul 01:01:39 01:05:57 81° 104° (ESE) 01:10:13 145.980
ITUPSAT 1 29 Jul 01:08:56 01:11:23 14° 56° (ENE) 01:13:50 437.325
BUGSAT 1 29 Jul 01:09:42 01:13:49 45° 99° (E) 01:17:54 437.445
TISAT 1 29 Jul 01:13:03 01:17:09 54° 72° (ENE) 01:21:18 437.305
DX 1 29 Jul 01:19:20 01:22:49 23° 266° (W) 01:26:18 434.975-435.025
JAS-2 29 Jul 01:21:32 01:26:36 44° 99° (E) 01:32:04 435.910
QB50P1 29 Jul 01:21:37 01:25:50 56° 288° (WNW) 01:30:01 145.935-145.965
50 SAT 29 Jul 01:25:04 01:26:18 11° 270° (W) 01:27:33 437.505
AISAT 29 Jul 01:26:23 01:29:00 15° 270° (W) 01:31:37 437.250
POPSAT HIP 1 29 Jul 01:28:16 01:32:26 49° 289° (WNW) 01:36:34 437.405
TIGRISAT 29 Jul 01:29:23 01:31:31 13° 303° (WNW) 01:33:38 435.000
UKube-1 29 Jul 01:30:03 01:33:27 22° 266° (W) 01:36:51 .
AIST 1 29 Jul 01:43:00 01:46:44 28° 270° (W) 01:50:29
Oscar 19 29 Jul 01:43:04 01:46:54 20° 91° (E) 01:50:43 437.125/150
Cosmos 2499 29 Jul 01:49:53 01:56:16 26° 61° (ENE) 02:02:17 435.465 / 435.565
QB50P2 29 Jul 01:49:58 01:53:42 29° 294° (WNW) 01:57:23 145.880/145.840
POLYITAN 1 29 Jul 01:52:38 01:56:20 29° 294° (WNW) 02:00:01 437.675
SWISSCUBE 29 Jul 01:58:42 02:03:09 40° 68° (ENE) 02:07:37 437.505
ISS 29 Jul 02:00:05 02:03:17 52° 16° (NNE) 02:06:30 145.825
SPROUT 29 Jul 02:01:36 02:03:54 14° 271° (W) 02:06:12 437.525
GONETS M04 29 Jul 02:14:15 02:22:46 50° 72° (ENE) 02:31:17
BEESAT 29 Jul 02:19:37 02:24:18 56° 71° (ENE) 02:28:59 436.000
BEESAT 3 29 Jul 02:32:26 02:36:12 39° 45° (NE) 02:39:57 437.485
NANOSAT C BR1 29 Jul 02:35:34 02:37:35 13° 301° (WNW) 02:39:35 145.865
DUCHIFAT 1 29 Jul 02:39:06 02:41:02 13° 302° (WNW) 02:42:58 145.980
BEESAT 2 29 Jul 02:41:56 02:45:31 30° 42° (NE) 02:49:05 435.950
PCSat 29 Jul 02:42:52 02:46:57 21° 35° (NE) 02:51:02 145.827
ITUPSAT 1 29 Jul 02:43:43 02:48:32 90° 6° (N) 02:53:21 437.325
BUGSAT 1 29 Jul 02:45:44 02:48:55 21° 297° (WNW) 02:52:05 437.445
MOZHAYETS 4 29 Jul 02:47:50 02:50:41 16° 60° (ENE) 02:53:34
TISAT 1 29 Jul 02:50:32 02:53:09 16° 269° (W) 02:55:47 437.305
JAS-2 29 Jul 03:07:08 03:11:36 29° 296° (WNW) 03:16:20 435.910
CUSAT 1 29 Jul 03:07:13 03:08:16 11° 93° (E) 03:09:16 437.405
AO-7 29 Jul 03:10:10 03:13:40 13° 83° (E) 03:17:10 29.400- 29.500
Gurwin Techsat 1B 29 Jul 03:15:35 03:20:52 61° 101° (E) 03:26:07 435.225
AIST 2 29 Jul 03:20:11 03:21:08 11° 22° (NNE) 03:22:04 435.215
ITAMSAT 1 29 Jul 03:20:50 03:25:00 24° 93° (E) 03:29:08 435.822/435.867
Oscar 19 29 Jul 03:21:31 03:26:37 59° 289° (WNW) 03:31:42 437.125/150
KKS-1 29 Jul 03:36:16 03:40:25 41° 69° (ENE) 03:44:37 437.445
ISS 29 Jul 03:36:37 03:39:41 38° 215° (SW) 03:42:43 145.825
SWISSCUBE 29 Jul 03:37:01 03:41:04 27° 265° (W) 03:45:09 437.505
Cosmos 2499 29 Jul 03:42:27 03:50:20 74° 265° (W) 03:57:37 435.465 / 435.565
DANDE 29 Jul 03:43:54 03:46:50 16° 93° (E) 03:49:22 436.750
BEESAT 29 Jul 03:59:00 04:02:25 19° 268° (W) 04:05:52 436.000
STARS 29 Jul 04:10:10 04:14:22 46° 70° (ENE) 04:18:37 437.465
BEESAT 3 29 Jul 04:10:26 04:13:44 25° 244° (WSW) 04:17:00 437.485
GONETS M04 29 Jul 04:11:24 04:19:28 43° 274° (W) 04:27:34
CUBESAT XI-V 29 Jul 04:12:03 04:14:42 15° 59° (ENE) 04:17:20 437.345
BEESAT 2 29 Jul 04:19:42 04:23:24 36° 241° (WSW) 04:27:04 435.950
MOZHAYETS 4 29 Jul 04:22:43 04:27:21 70° 258° (WSW) 04:31:59
ITUPSAT 1 29 Jul 04:25:20 04:27:03 12° 273° (W) 04:28:46 437.325
PCSat 29 Jul 04:25:42 04:31:10 84° 57° (ENE) 04:36:36 145.827
CUSAT 1 29 Jul 04:46:38 04:50:07 38° 283° (WNW) 04:52:59 437.405
O/OREOS (USA 219) 29 Jul 04:54:11 04:56:50 15° 45° (NE) 04:59:29 437.305
Gurwin Techsat 1B 29 Jul 04:56:20 05:00:24 23° 300° (WNW) 05:04:28 435.225
AIST 2 29 Jul 04:56:54 05:00:48 36° 44° (NE) 05:04:41 435.215
ITAMSAT 1 29 Jul 04:59:43 05:04:45 51° 291° (WNW) 05:09:44 435.822/435.867
AO-7 29 Jul 04:59:50 05:08:10 64° 104° (ESE) 05:16:24 29.400- 29.500
Oscar 19 29 Jul 05:04:01 05:04:54 10° 309° (NW) 05:05:48 437.125/150
KKS-1 29 Jul 05:13:35 05:17:08 23° 266° (W) 05:20:44 437.445
DANDE 29 Jul 05:24:29 05:29:30 53° 283° (WNW) 05:33:16 436.750
Cosmos 2499 29 Jul 05:38:03 05:41:50 14° 288° (WNW) 05:45:32 435.465 / 435.565
CUBESAT XI-V 29 Jul 05:46:54 05:51:30 75° 257° (WSW) 05:56:08 437.345
STARS 29 Jul 05:47:41 05:50:58 20° 268° (W) 05:54:16 437.465
BRITE-PL 29 Jul 06:00:03 06:03:15 17° 91° (E) 06:06:35 437.365/2234.400
RS-15 29 Jul 06:00:32 06:10:00 31° 103° (ESE) 06:19:48 29.354- 29.394
NOAA 18 29 Jul 06:05:39 06:06:51 11° 85° (E) 06:08:02 137.9125
PCSat 29 Jul 06:10:34 06:13:51 16° 255° (WSW) 06:17:08 145.827
STRAND 1 29 Jul 06:23:07 06:27:10 24° 61° (ENE) 06:31:12 437.568
HORYU 2 29 Jul 06:24:12 06:28:43 81° 104° (ESE) 06:33:11 437.375
Cubesat XI-IV 29 Jul 06:29:06 06:32:44 18° 90° (E) 06:36:20 437.490
O/OREOS (USA 219) 29 Jul 06:32:22 06:36:55 89° 244° (WSW) 06:41:29 437.305
AIST 2 29 Jul 06:35:32 06:39:13 30° 243° (WSW) 06:42:53 435.215
CUTE-I 29 Jul 06:51:31 06:56:06 28° 94° (E) 07:00:38 437.470
GOMX 1 29 Jul 06:52:17 06:56:33 26° 93° (E) 07:00:58 467.674
AO-7 29 Jul 06:53:07 07:00:32 37° 306° (NW) 07:07:54 29.400- 29.500
LilacSat-2 29 Jul 07:05:08 07:08:42 33° 96° (E) 07:12:12 437.200
NOAA 15 29 Jul 07:05:17 07:10:23 47° 99° (E) 07:15:27 137.62
BRITE-PL 29 Jul 07:37:19 07:42:05 68° 287° (WNW) 07:47:16 437.365/2234.400
NOAA 18 29 Jul 07:42:55 07:48:30 72° 104° (ESE) 07:54:00 137.9125
Cosmos 2491 29 Jul 07:43:15 07:50:45 30° 63° (ENE) 07:58:14 435.465 / 435.565
PRISM 29 Jul 07:52:51 07:55:48 20° 63° (ENE) 07:58:44 437.425
STRAND 1 29 Jul 08:00:57 08:05:59 55° 260° (W) 08:11:03 437.568
HORYU 2 29 Jul 08:02:21 08:04:39 14° 302° (WNW) 08:06:57 437.375
SEEDS 29 Jul 08:12:34 08:12:53 10° 87° (E) 08:13:12 437.485
